Plattsmouth, NE

4:31 PM CDT on May 24, 2018 (GMT -0500)
Plattsmouth Municipal

Weather History for KPMV - January, 2014

Change the Weather History Date:

Sunday, January 12, 2014

  Actual Average (KOFF) Record (KOFF)
Temperature  
Mean Temperature 44 °F -  
Max Temperature 54 °F 30 °F 53 °F (2006)
Min Temperature 34 °F 14 °F -9 °F (2011)
Degree Days  
Heating Degree Days 21    
Moisture  
Dew Point 29 °F    
Average Humidity 61    
Maximum Humidity 77    
Minimum Humidity 36    
Precipitation  
Precipitation 0.00 in - - ()
Sea Level Pressure  
Sea Level Pressure 29.57 in    
Wind  
Wind Speed 13 mph (SW)    
Max Wind Speed 24 mph    
Max Gust Speed 29 mph    
Visibility 10 miles    
Events Rain    
Averages and records for this station are not official NWS values.
T = Trace of Precipitation, MM = Missing Value Source: NWS Daily Summary

Daily Weather History Graph

Daily Weather History Graph

Search for Another Location

Airport or City:

Astronomy

Jan. 12, 2014 Rise Set
Actual Time 7:47 AM CST 5:17 PM CST
Civil Twilight 7:16 AM CST 5:47 PM CST
Nautical Twilight 6:42 AM CST 6:21 PM CST
Astronomical Twilight 6:09 AM CST 6:54 PM CST
Moon 2:45 PM CST (1/12) 4:46 AM CST (1/12)
Length of Visible Light 10h 30m
Length of Day
9h 29m
Waxing Gibbous, 90% of the Moon is Illuminated
Jan 12
Waxing Gibbous
Jan 15
Full
Jan 23
Last Quarter
Jan 30
New
Feb 6
First Quarter

Hourly Weather History & Observations

Time (CST) Temp. Windchill Dew Point Humidity Pressure Visibility Wind Dir Wind Speed Gust Speed Precip Events Conditions
12:15 AM 35.1 °F 25.9 °F 27.5 °F 74% 29.73 in 10.0 mi SSE 13.8 mph - N/A   Clear
12:35 AM 35.6 °F 26.6 °F 27.9 °F 73% 29.71 in 10.0 mi SSE 13.8 mph - N/A   Clear
12:55 AM 35.8 °F 26.9 °F 27.9 °F 73% 29.69 in 10.0 mi SSE 13.8 mph - N/A   Clear
1:15 AM 34.9 °F 26.2 °F 27.7 °F 75% 29.67 in 10.0 mi SSE 12.7 mph - N/A   Clear
1:35 AM 36.0 °F 26.3 °F 28.0 °F 73% 29.65 in 10.0 mi SSE 16.1 mph - N/A   Clear
1:55 AM 36.7 °F 28.0 °F 28.0 °F 71% 29.65 in 10.0 mi SSE 13.8 mph - N/A   Clear
2:15 AM 35.8 °F 26.5 °F 28.0 °F 73% 29.64 in 10.0 mi SSE 15.0 mph - N/A   Clear
2:35 AM 35.4 °F 26.4 °F 27.7 °F 73% 29.63 in 10.0 mi SSE 13.8 mph - N/A   Clear
2:55 AM 34.7 °F 25.5 °F 27.5 °F 75% 29.62 in 10.0 mi SSE 13.8 mph - N/A   Clear
3:15 AM 35.6 °F 25.9 °F 27.9 °F 73% 29.61 in 10.0 mi SSE 16.1 mph - N/A   Clear
3:35 AM 36.5 °F 27.0 °F 28.0 °F 71% 29.60 in 10.0 mi SSE 16.1 mph - N/A   Clear
3:55 AM 37.4 °F 28.2 °F 27.9 °F 68% 29.59 in 10.0 mi SSE 16.1 mph - N/A   Clear
4:15 AM 36.7 °F 26.9 °F 27.5 °F 69% 29.58 in 10.0 mi SSE 17.3 mph - N/A   Clear
4:35 AM 37.0 °F 27.7 °F 27.5 °F 68% 29.58 in 10.0 mi South 16.1 mph - N/A   Clear
4:55 AM 36.9 °F 26.5 °F 27.5 °F 69% 29.57 in 10.0 mi South 19.6 mph - N/A   Clear
5:15 AM 36.5 °F 26.7 °F 27.5 °F 70% 29.57 in 10.0 mi South 17.3 mph - N/A   Clear
5:35 AM 36.9 °F 27.1 °F 27.5 °F 69% 29.57 in 10.0 mi South 17.3 mph - N/A   Clear
5:55 AM 37.0 °F 27.4 °F 27.3 °F 68% 29.57 in 10.0 mi South 17.3 mph - N/A   Clear
6:15 AM 37.4 °F 27.2 °F 27.5 °F 67% 29.55 in 10.0 mi South 19.6 mph - N/A   Clear
6:35 AM 37.0 °F 26.2 °F 27.5 °F 68% 29.52 in 10.0 mi South 21.9 mph 25.3 mph N/A   Clear
6:55 AM 37.4 °F 26.1 °F 27.3 °F 67% 29.51 in 10.0 mi South 24.2 mph 28.8 mph N/A   Clear
7:15 AM 36.9 °F 26.2 °F 27.3 °F 68% 29.52 in 10.0 mi South 20.7 mph 25.3 mph N/A   Clear
7:35 AM 37.4 °F 28.2 °F 27.3 °F 67% 29.51 in 10.0 mi South 16.1 mph - N/A   Clear
7:55 AM 37.8 °F 29.0 °F 27.1 °F 66% 29.52 in 10.0 mi South 15.0 mph - N/A   Clear
8:15 AM 37.9 °F 29.2 °F 27.1 °F 65% 29.52 in 10.0 mi South 15.0 mph - N/A   Clear
8:35 AM 38.8 °F 30.0 °F 27.5 °F 64% 29.51 in 10.0 mi South 16.1 mph - N/A   Clear
8:55 AM 38.8 °F 30.4 °F 27.5 °F 64% 29.51 in 10.0 mi South 15.0 mph - N/A   Clear
9:15 AM 39.7 °F 31.5 °F 27.9 °F 63% 29.52 in 10.0 mi South 15.0 mph 18.4 mph N/A   Clear
9:35 AM 40.5 °F 33.6 °F 28.0 °F 61% 29.52 in 10.0 mi South 11.5 mph - N/A   Clear
9:55 AM 41.4 °F 33.6 °F 28.6 °F 60% 29.51 in 10.0 mi South 15.0 mph - N/A   Clear
10:15 AM 42.3 °F 35.5 °F 28.4 °F 58% 29.51 in 10.0 mi South 12.7 mph - N/A   Clear
10:35 AM 43.3 °F 36.5 °F 28.4 °F 56% 29.52 in 10.0 mi South 13.8 mph - N/A   Clear
10:55 AM 44.6 °F 39.2 °F 28.6 °F 53% 29.51 in 10.0 mi SSW 10.4 mph - N/A   Clear
11:15 AM 45.9 °F 41.2 °F 28.8 °F 51% 29.51 in 10.0 mi SSW 9.2 mph - N/A   Clear
11:35 AM 46.8 °F - 29.1 °F 50% 29.51 in 10.0 mi SW 8.1 mph - N/A   Clear
11:55 AM 48.4 °F - 28.8 °F 47% 29.50 in 10.0 mi SW 9.2 mph - N/A   Clear
12:15 PM 49.6 °F - 28.0 °F 43% 29.48 in 10.0 mi WSW 9.2 mph - N/A   Clear
12:35 PM 51.3 °F - 27.5 °F 40% 29.47 in 10.0 mi SW 11.5 mph - N/A   Clear
12:55 PM 51.8 °F - 27.7 °F 39% 29.45 in 10.0 mi WSW 6.9 mph - N/A   Clear
1:15 PM 52.9 °F - 27.9 °F 38% 29.45 in 10.0 mi SSW 6.9 mph - N/A   Clear
1:35 PM 54.1 °F - 27.5 °F 36% 29.44 in 10.0 mi WSW 6.9 mph - N/A   Clear
1:55 PM 54.0 °F - 27.5 °F 36% 29.45 in 10.0 mi WSW 4.6 mph - N/A   Clear
2:15 PM 54.1 °F - 27.3 °F 36% 29.45 in 10.0 mi West 6.9 mph - N/A   Clear
2:35 PM 53.6 °F - 27.5 °F 37% 29.47 in 10.0 mi WNW 6.9 mph - N/A   Clear
2:55 PM 53.1 °F - 27.9 °F 38% 29.47 in 10.0 mi West 4.6 mph - N/A   Clear
3:15 PM 52.5 °F - 28.4 °F 39% 29.49 in 10.0 mi West 5.8 mph - N/A   Clear
3:35 PM 51.8 °F - 28.9 °F 41% 29.50 in 10.0 mi West 3.5 mph - N/A   Clear
3:55 PM 50.4 °F - 29.3 °F 44% 29.52 in 10.0 mi Calm Calm - N/A   Clear
4:15 PM 49.8 °F - 30.0 °F 47% 29.53 in 10.0 mi NW 3.5 mph - N/A   Clear
4:35 PM 48.7 °F - 30.2 °F 49% 29.53 in 10.0 mi NW 8.1 mph - N/A   Clear
4:55 PM 47.1 °F - 31.1 °F 54% 29.54 in 10.0 mi NW 8.1 mph - N/A   Clear
5:15 PM 45.5 °F 41.8 °F 31.1 °F 57% 29.56 in 10.0 mi NW 6.9 mph - N/A   Clear
5:35 PM 44.8 °F 41.0 °F 31.1 °F 59% 29.57 in 10.0 mi NW 6.9 mph - N/A   Clear
5:55 PM 43.7 °F 39.7 °F 30.9 °F 61% 29.57 in 10.0 mi NW 6.9 mph - N/A   Clear
6:15 PM 42.6 °F 39.0 °F 30.9 °F 63% 29.59 in 10.0 mi NW 5.8 mph - N/A   Scattered Clouds
6:35 PM 42.8 °F 39.3 °F 30.7 °F 62% 29.60 in 10.0 mi WNW 5.8 mph - N/A   Overcast
6:55 PM 43.2 °F 37.9 °F 31.1 °F 62% 29.61 in 10.0 mi NW 9.2 mph - N/A   Mostly Cloudy
7:15 PM 43.7 °F 38.6 °F 31.5 °F 62% 29.61 in 10.0 mi NW 9.2 mph - N/A   Scattered Clouds
7:35 PM 42.8 °F 38.6 °F 31.1 °F 63% 29.61 in 10.0 mi WNW 6.9 mph - N/A   Scattered Clouds
7:55 PM 41.4 °F 36.2 °F 31.1 °F 67% 29.61 in 10.0 mi NW 8.1 mph - N/A   Scattered Clouds
8:15 PM 41.2 °F 35.0 °F 31.1 °F 67% 29.62 in 10.0 mi NW 10.4 mph - N/A   Scattered Clouds
8:35 PM 41.5 °F 35.9 °F 30.9 °F 66% 29.62 in 10.0 mi NW 9.2 mph - N/A   Mostly Cloudy
8:55 PM 40.3 °F 35.5 °F 30.4 °F 68% 29.63 in 10.0 mi WNW 6.9 mph - N/A   Scattered Clouds
9:15 PM 40.8 °F 36.2 °F 31.1 °F 68% 29.63 in 10.0 mi WNW 6.9 mph - N/A   Scattered Clouds
9:35 PM 41.0 °F 35.8 °F 31.3 °F 68% 29.64 in 10.0 mi NW 8.1 mph - N/A   Overcast
9:55 PM 41.0 °F 34.3 °F 31.1 °F 68% 29.65 in 10.0 mi NW 11.5 mph - N/A   Overcast
10:15 PM 42.3 °F 36.3 °F 32.4 °F 68% 29.66 in 10.0 mi NW 10.4 mph - N/A   Drizzle
10:35 PM 42.4 °F - 35.6 °F 77% 29.66 in 10.0 mi Calm Calm - N/A Rain Light Rain
10:55 PM 43.9 °F 39.3 °F 34.5 °F 70% 29.66 in 10.0 mi NW 8.1 mph - N/A   Overcast
11:15 PM 43.0 °F 40.3 °F 34.9 °F 73% 29.68 in 10.0 mi WSW 4.6 mph - N/A   Overcast
11:35 PM 45.0 °F 42.6 °F 33.3 °F 64% 29.67 in 10.0 mi NW 4.6 mph - N/A   Overcast
11:55 PM 45.0 °F 43.5 °F 32.7 °F 62% 29.67 in 10.0 mi North 3.5 mph - N/A Rain Light Rain